Regional Weather Roundup
Issued by NWS Cleveland, OH

Home | Current Version | Previous Version | Text Only | Print | Product List | Glossary Off
Versions: 1 2 3 4 5 6 7 8 9 10 11 12 13 14 15 16 17 18 19 20 21 22 23 24 25 26 27 28 29 30 31 32 33 34 35 36 37 38 39 40 41 42 43 44 45 46 47 48 49 50

000
ASUS41 KCLE 201810
RWRCLE
OHIO REGIONAL WEATHER ROUNDUP
NATIONAL WEATHER SERVICE WILMINGTON, OH
200 PM EDT THU JUL 20 2017

NOTE: "FAIR" INDICATES FEW OR NO CLOUDS BELOW 12,000 FEET WITH NO
SIGNIFICANT WEATHER AND/OR OBSTRUCTIONS TO VISIBILITY.

OHZ001>008-015>018-024>027-034-035-043-044-201900-
   NORTHWEST OHIO

CITY           SKY/WX    TMP DP  RH WIND       PRES   REMARKS
DEFIANCE       PTSUNNY  N/A N/A N/A VRB7      30.00S
FINDLAY        FAIR      85  69  58 SW7       29.99F
TOLEDO EXPRESS PTSUNNY   84  70  62 W10       29.99F
TOLEDO EXEC    CLOUDY    85  69  58 W8        30.01R
LIMA           FAIR      83  71  67 SW12      30.00F
$$

OHZ009>014-019>023-028>033-038-089-201900-
   NORTHEAST OHIO

CITY           SKY/WX    TMP DP  RH WIND       PRES   REMARKS
CLE-HOPKINS    PTSUNNY   85  69  58 W13       30.01F
CLE-LAKEFRONT  FAIR      82  71  69 W14       29.98F
CUY CO. ARPT   PTSUNNY   82  70  65 W23       30.01F
LORAIN-ELYRIA  FAIR      84  67  56 W8        30.00F
ASHTABULA      FAIR      85  68  56 W18G25    29.99F
AKRON-CANTON   PTSUNNY   88  69  53 W15G22    30.01F HX  92
WOOSTER        FAIR      85  71  63 W14G21    30.02F HX  90
MANSFIELD      FAIR      87  69  54 W9        30.04F HX  91
YOUNGSTOWN     PTSUNNY   87  70  56 SW15      29.99F HX  92
$$

OHZ042-051>053-060>062-070>072-077>081-201900-
  SOUTHWEST OHIO

CITY           SKY/WX    TMP DP  RH WIND       PRES   REMARKS
CINC-COVINGTON CLOUDY    86  77  74 W9        30.10F HX  97
CINC-LUNKEN    FAIR      88  76  67 W10       30.08F HX  99
HAMILTON       LGT RAIN  84  76  76 W5        30.09F HX  93
DAYTON         TSTM      75  72  90 W10       30.08F FOG
WRIGHT-PAT AFB TSTM      82  77  83 SW15      30.06F FOG     HX  91
DAYTON GENERAL TSTM      76  72  87 W18G28    30.09S FOG
WILMINGTON     FAIR      84  76  76 SW14      30.08F HX  93
$$

OHZ036-037-039>041-045>050-054>059-063>069-073>076-082>088-201900-
  CENTRAL AND SOUTHEAST OHIO

CITY           SKY/WX    TMP DP  RH WIND       PRES   REMARKS
COLUMBUS       PTSUNNY   87  74  64 SW10      30.03F HX  95
OSU AIRPORT    FAIR      86  75  69 W12G18    30.04F HX  95
BOLTON FIELD   MOSUNNY   86  75  70 W13       30.06S HX  95
RICKENBACK AFB PTSUNNY   85  74  69 SW12G17   30.04F HX  93
NEWARK         PTSUNNY   85  74  69 SW10      30.03F HX  92
MARION         FAIR      85  68  56 W8        30.03F
LANCASTER      FAIR      84  74  71 W8        30.06F HX  91
ZANESVILLE     FAIR      87  71  58 SW10      30.04F HX  93
NEW PHILLY     PTSUNNY   87  72  60 SW9       30.02F HX  93
$$




USA.gov is the U.S. government's official web portal to all federal, state and local government web resources and services.